ロヴァシュ第2彗星

184P/Lovas 2 (2013)

English version
Home page
Updated on April 29, 2014

---------------------------------------------------------------------

・ プロフィール

・ 写真集

・ 軌道要素

Epoch 2013 Aug. 16.0 TT = JDT 2456520.5
T 2013 July 28.46852 TT                                 MPC
q   1.3940107            (2000.0)            P               Q
n   0.14909202     Peri.   78.06398     +0.99696792     +0.07304267
a   3.5223550      Node   277.74294     -0.07766539     +0.91278951
e   0.6042390      Incl.    1.55145     -0.00480047     +0.40184585
P   6.61
From 206 observations 1986 Dec. 2-2013 Dec. 12, mean residual 0".7.

・ 星図

・ 光度変化

        m1 = 16.0 + 5 logΔ + 10.0 log r(t - 100)

        ※ 灰色の曲線は、m1 = 14.5 + 5 logΔ + 10.0 log r の光度曲線です。

---------------------------------------------------------------------

軌道要素はM.P.E.C. 2013-X73に掲載されたものです。
星図はステラナビゲータ Ver.8 (アストロアーツ) で作成したものです。
光度グラフはComet for Windowsで作成したものです。

---------------------------------------------------------------------

Copyright(C) Seiichi Yoshida (comet@aerith.net). All rights reserved.